Das Wetter in  D-61279 Heinzenberg / Taunus





Wetter Minimum- & Maximum-Werte im Juni 2011

Standort: Heinzenberg / Taunus - Höhe 297 m         8° 24' 1" Ost 50° 21' 51" Nord
(   3-stündige Aktualisierung    letzte Aktualisierung um 20:46 am 30.06.2011  )


Messgrösse

Minimum

Maximum

Durchschnitt

Temperatur West /
Luftfeuchte West
Anklicken für Monats-Diagramm

6,8 °C

05:52
12.06.2011

23 %

17:59
02.06.2011

32,8 °C

17:20
28.06.2011

99 %

23:47
05.06.2011

Temp

16,4 °C

Feuchte

76 %

Temperatur Ost /
Luftfeuchte Ost
Anklicken für Monats-Diagramm

6,5 °C

05:57
12.06.2011

--

--
--

32,3 °C

16:40
28.06.2011

--

--
--

16,0 °C

--

Luftdruck Anklicken für Monats-Diagramm

1001,5 hPa

19:03
07.06.2011

1031,3 hPa

06:14
02.06.2011

1016,4 hPa

Taupunkt

1,3 °C

11:04
02.06.2011

19,0 °C

11:16
05.06.2011

11,6 °C

Windchill
( gefühlte Temperatur )

0,6 °C

07:27
19.06.2011

32,8 °C

17:35
28.06.2011

14,7 °C

Windgeschwindigkeit /
Windrichtung
Anklicken für Monats-Diagramm

---

55,0 km/h / W-SW

16:41
18.06.2011

8,9 km/h
W-SW

Helligkeit /
Sonnenschein
Anklicken für Monats-Diagramm
Anklicken für Monats-Diagramm

Sonnenschein:

151:41 Stunden

Max: 14:15 Std am
02.06.2011

122 klux

12:51
18.06.2011

30 klux

Solarstrahlung Anklicken für Monats-Diagramm

---

834 W/m²

12:51
18.06.2011

222 W/m²

Regenmenge
    Juni 2011
Anklicken für Monats-Diagramm

Insgesamt 152,6 l/m²

in 64:59 Stunden
an 22 Tagen

68,9 l/m²

13:46
05.06.2011

Gesamtmenge

152,6 l/m²

Regen-Tage
    Juni 2011
Anklicken für Monats-Diagramm

>   0 mm/Tag

>   2 mm/Tag

>   5 mm/Tag

> 10 mm/Tag

> 20 mm/Tag

22 Tage     
12 Tage     
7 Tage     
3 Tage     
2 Tage     

Eisige Tage Juni 2011 / 2010

Tmin ≤ -10°C     

0 Tage

/

0 Tage

Eistage Juni 2011 / 2010

Tmax <     0°C     

0 Tage

/

0 Tage

Frosttage Juni 2011 / 2010

Tmin ≤     0°C     

0 Tage

/

0 Tage

Kalte Tage Juni 2011 / 2010

Tmax <   10°C     

0 Tage

/

0 Tage

Warme Tage Juni 2011 / 2010

Tmax ≥   20°C     

21 Tage

/

24 Tage

Sommertage Juni 2011 / 2010

Tmax ≥   25°C     

8 Tage

/

15 Tage

Heisse Tage Juni 2011 / 2010

Tmax ≥   30°C     

3 Tage

/

4 Tage


Monatsdiagramm Juni 2011

Die Kurven zeigen den Durchschnittswert des jeweiligen Tages an


Wetter-Monatsübersicht Juni 2011
Datum
  Temperatur
   Luftdruck
   Wind
  Regen
   Luftfeuchte
   Helligkeit

Sonnen-
schein

Ø
Temp.

Min.
Temp.

Max.
Temp.

Ø
Luftdruck

Min.
Luftdruck

Max.
Luftdruck

Ø-Geschw.
Haupt-Richtg.

Max.
Wind

Menge /
Dauer

Ø
Feuchte

Min.
Feuchte

Max.
Feuchte

Ø
Helligkeit

Max.
Helligkeit

1.
Juni
12,3 °C9,0 °C
06:08
15,8 °C
18:23
1026,3 hPa1022,0 hPa
00:03
1029,8 hPa
23:19
7,5 km/h
N-NW
19,5 km/h
13:03  
1,1 l/m²
2:05 Stunden
76 %55 %
17:03
97 %
00:03
18,2 klux64,4 klux
14:43
--- 
2.
Juni
17,7 °C10,1 °C
06:14
26,0 °C
17:04
1029,7 hPa1027,4 hPa
17:39
1031,3 hPa
06:14
9,3 km/h
NO
30,5 km/h
12:49  
---
44 %23 %
17:59
71 %
06:59
47,4 klux85,8 klux
12:59
14:15 Std 
3.
Juni
19,7 °C10,6 °C
04:34
29,0 °C
17:59
1026,8 hPa1021,9 hPa
18:04
1031,0 hPa
02:44
9,5 km/h
NO
35,7 km/h
17:24  
---
47 %28 %
16:59
67 %
04:29
44,0 klux107,0 klux
12:49
11:21 Std 
4.
Juni
20,4 °C12,1 °C
05:55
30,5 °C
15:25
1017,4 hPa1011,8 hPa
23:21
1023,5 hPa
02:00
7,3 km/h
NO
23,9 km/h
10:15  
6,8 l/m²
3:35 Stunden
65 %35 %
15:30
92 %
23:46
38 klux105 klux
14:20
7:45 Std 
5.
Juni
17,6 °C14,0 °C
13:46
24,9 °C
11:36
1008,3 hPa1005,5 hPa
19:51
1011,9 hPa
00:41
2,1 km/h
SO
21,6 km/h
13:16  
68,9 l/m²
5:36 Stunden
93 %68 %
11:21
99 %
23:47
20 klux78 klux
11:16
3:35 Std 
6.
Juni
17,9 °C14,8 °C
05:37
24,2 °C
13:12
1004,7 hPa1002,8 hPa
13:17
1006,9 hPa
00:02
5,1 km/h
SO
33,6 km/h
14:27  
5,9 l/m²
2:40 Stunden
90 %62 %
13:27
99 %
00:02
28,8 klux105,0 klux
12:32
5:20 Std 
7.
Juni
19,2 °C14,0 °C
06:38
27,4 °C
17:03
1004,6 hPa1001,5 hPa
19:03
1006,8 hPa
08:33
4,8 km/h
W-SW
23,8 km/h
09:13  
---
76 %42 %
18:23
97 %
03:53
37 klux103 klux
11:53
7:10 Std 
8.
Juni
14,2 °C11,4 °C
09:33
16,9 °C
02:28
1006,4 hPa1001,5 hPa
02:28
1012,6 hPa
23:59
12,3 km/h
W-NW
36,9 km/h
02:53  
24,6 l/m²
5:05 Stunden
83 %59 %
18:58
99 %
06:08
17 klux90 klux
16:13
36 Min 
9.
Juni
12,9 °C7,6 °C
05:14
18,5 °C
12:24
1015,1 hPa1012,6 hPa
00:04
1017,6 hPa
23:35
4,2 km/h
NW
19,3 km/h
12:44  
---
74 %46 %
12:29
95 %
07:39
28,7 klux112,0 klux
12:39
5:21 Std 
10.
Juni
14,8 °C10,4 °C
06:20
20,9 °C
18:10
1015,6 hPa1013,5 hPa
18:10
1017,7 hPa
02:05
2,3 km/h
NW
17,3 km/h
16:55  
---
10 Minuten
76 %53 %
18:20
93 %
06:55
24 klux106 klux
11:45
1:35 Std 
11.
Juni
14,3 °C10,4 °C
07:36
22,1 °C
17:31
1017,0 hPa1015,4 hPa
00:01
1019,8 hPa
23:57
9,5 km/h
W
36,4 km/h
18:31  
1,1 l/m²
2:25 Stunden
71 %33 %
17:51
95 %
06:16
40 klux103 klux
12:16
7:10 Std 
12.
Juni
13,8 °C6,8 °C
05:52
20,5 °C
14:22
1018,9 hPa1016,7 hPa
17:07
1021,4 hPa
06:32
3,4 km/h
W-NW
19,6 km/h
16:37  
---
70 %40 %
16:07
93 %
06:57
34 klux107 klux
10:57
4:54 Std 
13.
Juni
15,2 °C10,4 °C
03:23
20,9 °C
16:43
1017,0 hPa1015,6 hPa
17:43
1017,8 hPa
05:48
8,4 km/h
W-SW
27,4 km/h
12:23  
---
15 Minuten
75 %59 %
16:38
88 %
05:33
27 klux107 klux
13:33
2:10 Std 
14.
Juni
18,7 °C14,1 °C
05:39
25,8 °C
16:54
1017,4 hPa1016,0 hPa
16:54
1019,2 hPa
23:59
5,9 km/h
W-NW
23,3 km/h
15:54  
---
15 Minuten
74 %47 %
17:39
94 %
07:39
36 klux105 klux
13:04
6:10 Std 
15.
Juni
18,1 °C11,4 °C
05:49
24,9 °C
16:19
1017,5 hPa1014,4 hPa
20:39
1019,8 hPa
05:59
3,7 km/h
W-SW
21,4 km/h
18:14  
---
74 %56 %
15:49
93 %
06:54
25 klux88 klux
10:09
2:50 Std 
16.
Juni
16,8 °C12,0 °C
23:55
24,0 °C
16:00
1013,7 hPa1010,1 hPa
16:10
1016,3 hPa
02:00
11,0 km/h
W-SW
52,0 km/h
16:50  
12,2 l/m²
2:55 Stunden
81 %60 %
14:25
96 %
22:40
25,0 klux101,0 klux
14:20
2:45 Std 
17.
Juni
15,0 °C7,0 °C
05:50
21,9 °C
15:55
1013,4 hPa1006,0 hPa
23:26
1018,3 hPa
05:50
6,9 km/h
W-SW
30,2 km/h
14:10  
0,9 l/m²
2:06 Stunden
75 %43 %
16:00
98 %
07:15
35 klux104 klux
14:10
5:34 Std 
18.
Juni
14,6 °C11,3 °C
23:57
18,4 °C
16:16
1006,2 hPa1003,9 hPa
04:11
1009,5 hPa
23:57
25,0 km/h
W-SW
55,0 km/h
16:41  
0,8 l/m²
2:35 Stunden
77 %51 %
15:31
94 %
03:21
32 klux122 klux
12:51
4:55 Std 
19.
Juni
12,4 °C10,3 °C
04:37
16,8 °C
15:22
1011,3 hPa1008,4 hPa
03:17
1016,7 hPa
22:38
24,5 km/h
W-SW
55,0 km/h
15:07  
2,3 l/m²
4:51 Stunden
80 %60 %
15:27
93 %
19:27
26 klux114 klux
13:02
2:10 Std 
20.
Juni
12,3 °C7,6 °C
05:28
15,0 °C
19:03
1015,5 hPa1013,1 hPa
19:28
1017,2 hPa
05:28
9,6 km/h
W-SW
24,8 km/h
10:03  
4,0 l/m²
7:30 Stunden
92 %73 %
10:03
98 %
21:53
21 klux73 klux
09:28
2:20 Std 
21.
Juni
17,4 °C14,0 °C
00:14
23,2 °C
18:09
1014,4 hPa1013,1 hPa
06:19
1016,1 hPa
23:20
14,3 km/h
W-SW
35,9 km/h
18:24  
7,8 l/m²
6:50 Stunden
88 %63 %
18:19
99 %
01:59
26,4 klux93,0 klux
15:09
2:40 Std 
22.
Juni
17,2 °C13,9 °C
23:46
22,5 °C
13:00
1013,3 hPa1010,2 hPa
13:00
1016,4 hPa
23:46
11,9 km/h
W
43,8 km/h
18:50  
5,3 l/m²
1:45 Stunden
84 %61 %
19:40
97 %
16:15
23,6 klux114,0 klux
15:35
2:56 Std 
23.
Juni
15,4 °C11,5 °C
23:57
19,0 °C
16:16
1016,3 hPa1015,4 hPa
06:31
1019,8 hPa
23:57
15,1 km/h
W-SW
43,5 km/h
13:26  
0,2 l/m²
45 Minuten
72 %58 %
10:46
87 %
23:47
29 klux100 klux
11:21
4:35 Std 
24.
Juni
12,0 °C9,2 °C
05:42
17,6 °C
16:02
1022,1 hPa1019,8 hPa
00:02
1025,1 hPa
23:28
9,8 km/h
W-SW
34,8 km/h
16:27  
3,6 l/m²
2:10 Stunden
84 %55 %
16:07
93 %
11:42
33 klux119 klux
13:57
5:40 Std 
25.
Juni
11,9 °C9,0 °C
04:03
14,0 °C
09:28
1025,1 hPa1023,6 hPa
23:54
1026,3 hPa
02:43
6,4 km/h
W-SW
25,8 km/h
10:28  
1,5 l/m²
5:00 Stunden
91 %75 %
10:08
96 %
23:59
13 klux38 klux
08:33
5 Min 
26.
Juni
18,9 °C13,7 °C
00:04
25,5 °C
16:04
1023,4 hPa1022,3 hPa
16:04
1024,7 hPa
00:04
4,5 km/h
W-SW
17,5 km/h
14:14  
---
10 Minuten
82 %56 %
16:09
99 %
04:44
32,6 klux112,0 klux
12:44
6:44 Std 
27.
Juni
21,7 °C12,4 °C
05:39
31,6 °C
17:54
1019,8 hPa1016,4 hPa
17:54
1023,5 hPa
01:44
8,7 km/h
SO
28,5 km/h
11:04  
---
70 %39 %
17:34
98 %
07:44
46 klux86 klux
13:14
12:30 Std 
28.
Juni
23,9 °C14,6 °C
06:00
32,8 °C
17:20
1016,0 hPa1011,5 hPa
20:05
1018,4 hPa
06:00
6,0 km/h
SO
24,5 km/h
11:55  
---
62 %29 %
16:05
93 %
07:00
46,1 klux88,5 klux
13:50
13:25 Std 
29.
Juni
19,0 °C14,4 °C
23:52
24,0 °C
15:11
1016,1 hPa1013,6 hPa
00:01
1019,4 hPa
23:52
9,8 km/h
W-NW
29,8 km/h
17:11  
3,2 l/m²
3:51 Stunden
83 %65 %
15:06
97 %
22:16
18,1 klux65,6 klux
10:51
20 Min 
30.
Juni
15,1 °C11,3 °C
08:02
20,1 °C
17:02
1021,3 hPa1019,4 hPa
00:02
1022,8 hPa
23:48
8,7 km/h
NW
25,5 km/h
12:42  
2,6 l/m²
2:25 Stunden
74 %48 %
17:02
98 %
00:02
35,3 klux102,0 klux
11:42
4:50 Std 



Juni
2011

Temperatur

  

Luftdruck

  

Wind

  

Regen

  

Luftfeuchte

  

Helligkeit

Sonnen-
schein

Ø

Min

Max

Ø

Min

Max

Ø

Max

Max

Ø

Min

Max

Ø

Max

Max

16,4 °C

6,8 °C

05:52 Uhr
12.06.2011

32,8 °C

17:20 Uhr
28.06.2011

1016,4 hPa

1001,5 hPa

19:03 Uhr
07.06.2011

1031,3 hPa

06:14 Uhr
02.06.2011

8,9 km/h

W-SW

55,0 km/h

16:41 Uhr
18.06.2011

68,9 l/m²

5:36 Stunden
05.06.2011

76 %

23 %

17:59 Uhr
02.06.2011

99 %

23:47 Uhr
05.06.2011

30 klux

122,0 klux

12:51 Uhr
18.06.2011

14:15 Std

am
02.06.2011

Gesamt

Gesamt

152,6 l/m²

22 Tage
64:59 h

151:41 Std


Wetter-Diagramme Juni 2011     Heinzenberg / Taunus   
TemperaturLuftfeuchte
SolarstrahlungLuftdruck
HelligkeitSonnenschein
RegenmengeRegendauer
Wind-GeschwindigkeitWind-Richtung